Simultaneous Nadir Overpasses (SNOs) Predictions

Prediction of SNOs between FY3D and METOP-C Satellite Orbit:

Table of predicted SNOs for the next 14.0 days since TLE Epoch: 3/27/2021
Index Date (FY3D) Time (FY3D) Lat,Lon (FY3D) SZA (FY3D ) Date (METOP-C) Time (METOP-C) Lat,Lon (METOP-C) SZA (METOP-C ) Distance(km) Time Diff (sec)
1 04/09/2021 19:59:51 -74.02, 51.56 113.76 04/09/2021 20:00:57 -73.94, 54.64 113.97 95.04 66
2 04/09/2021 20:50:32 73.83,-140.68 66.03 04/09/2021 20:51:40 73.81,-138.33 65.91 72.69 68
3 04/09/2021 21:41:14 -73.72, 26.90 114.11 04/09/2021 21:42:24 -73.67, 28.67 114.24 55.31 70
4 04/09/2021 22:31:56 73.59,-165.46 65.73 04/09/2021 22:33:07 73.54,-164.30 65.63 36.83 71
5 04/09/2021 23:22:38 -73.48, 2.11 114.40 04/09/2021 23:23:51 -73.40, 2.71 114.52 20.80 73
6 04/10/2021 00:13:20 73.34, 169.74 65.44 04/10/2021 00:14:33 73.32, 169.86 65.40 4.49 73
7 04/10/2021 01:04:03 -73.28, -22.81 114.64 04/10/2021 01:05:15 -73.28, -22.90 114.65 2.95 72
8 04/10/2021 01:54:47 73.29, 144.48 65.36 04/10/2021 01:55:54 73.30, 144.47 65.36 0.69 67



Historial Predications of SNOs between FY3D and METOP-C
